SAUDISAT 5A

Last updated on Thu Jul 03 2025 00:02:30 GMT+0000 (Coordinated Universal Time)

1 43831U 18102A 25183.59450476 .00003903 00000+0 16747-3 0 9992 2 43831 97.3567 247.0035 0009085 291.5101 68.5167 15.23272209362377
UTC large
Height (km)
Speed (km/s)
/
Latitude / Longitude
Inclination (degrees)
Orbital Period (minutes)
Azimuth
Elevation
Range (km)
Doppler Factor

Next 0 passes for location: London (51.5072 / 0.1276)

Sorry there are no passes over London.